OpenBCM V1.13 (Linux)

Packet Radio Mailbox

DB0FHN

[JN59NK Nuernberg]

 Login: GUEST





  
I0OJJ  > KEPS     13.01.26 02:33l 322 Lines 15461 Bytes #999 (0) @ AMSAT
BID : ORB26013.1
Read: OE5RCO DJ6UX GUEST
Subj: 2Line Orbital Elements 26013.AMSAT
Path: DB0FHN<DB0RKB<DK0WUE<PD0LPM<PI8ZTM<CX2SA<EA2RCF<I0OJJ
Sent: 260113/0021z @:I0OJJ.ITA.EU [Rome] obcm1.13
From: I0OJJ @ I0OJJ.ITA.EU (Gustavo)
To:   KEPS @ AMSAT
X-Info: This message was generated automatically


QST de W1STR

AMSAT Orbital Elements for Amateur Satellites in TLE Format
From Orbital Analysis Office
New England Sci-Tech STEM Education Center
Natick MA January 13, 2026
To all radio amateurs


These element sets describe the orbits of various satellites 
in use by the amateur radio community. For details see:
www.amsat.org/keplerian-elements-formats/

A daily update of element sets is available at:
www.amsat.org/tle/daily-bulletin.txt
or without bulletin text:
www.amsat.org/tle/dailytle.txt


AO-07
1 07530U 74089B   26012.29977174 -.00000024  00000-0  14308-3 0  9996
2 07530 101.9967  23.8883 0012391  69.2788   1.1138 12.53694944340983
UO-11
1 14781U 84021B   26011.87495075  .00001548  00000-0  16516-3 0  9991
2 14781  97.7850 339.4443 0007414 353.5547   6.5574 14.90268030233847
AO-27
1 22825U 93061C   26012.13705514  .00000114  00000-0  60571-4 0  9994
2 22825  98.7100  79.4701 0008182 191.1464 168.9539 14.30890029684688
FO-29
1 24278U 96046B   26012.23519209 -.00000037  00000-0 -44803-5 0  9996
2 24278  98.5444 242.2724 0350572 140.8937 221.8112 13.53264345452077
GO-32
1 25397U 98043D   26011.91224334  .00000097  00000-0  62271-4 0  9996
2 25397  98.9951   0.8254 0000803 357.8022   2.3152 14.24387392429085
ISS
1 25544U 98067A   26012.17690827  .00009276  00000-0  17471-3 0  9998
2 25544  51.6333 351.7881 0007723   8.9804 351.1321 15.49250518547578
NO-44
1 26931U 01043C   26012.19072328  .00000182  00000-0  98968-4 0  9997
2 26931  67.0515 287.7299 0007258 268.0154  92.0117 14.31876598268119
SO-50
1 27607U 02058C   26012.09445829  .00001469  00000-0  19247-3 0  9995
2 27607  64.5514 251.7705 0073403 290.9136  68.4123 14.82541380241314
CO-55
1 27844U 03031E   26012.01036289  .00000375  00000-0  18156-3 0  9991
2 27844  98.6767  22.5234 0008558 280.5175  79.5039 14.24210624169445
CO-57
1 27848U 03031J   26011.99162381  .00000313  00000-0  15677-3 0  9991
2 27848  98.6795  22.3428 0008570 300.7863  59.2472 14.23514007169151
RS-22
1 27939U 03042A   26012.28982932  .00001233  00000-0  19986-3 0  9998
2 27939  98.3381 192.3062 0012232  46.7501  77.7602 14.73070763192593
CO-58
1 28895U 05043F   26011.89533223  .00001854  00000-0  30302-3 0  9998
2 28895  98.2741 164.4906 0013926 345.7368  14.3443 14.72040037 78756
CO-65
1 32785U 08021C   26012.90698526  .00004470  00000-0  29859-3 0  9993
2 32785  97.8115 351.4545 0008846 184.6606 175.4540 15.07500827961784
CO-66
1 32791U 08021J   26012.52892640  .00016783  00000-0  64464-3 0  9992
2 32791  97.7461   3.7659 0005157 116.7213 243.4553 15.26513096963492
RS-30
1 32953U 08025A   26012.85575557  .00000011  00000-0  70192-5 0  9991
2 32953  82.5022  92.0708 0018249 290.7502  69.1622 12.43173332800393
SRMSAT
1 37841U 11058D   26012.05790412  .00000435  00000-0  92405-4 0  9993
2 37841  19.9721 284.4693 0011627 286.0215 102.4740 14.11524086735736
ZACUBE-1
1 39417U 13066B   26011.82552799  .00006119  00000-0  49437-3 0  9994
2 39417  97.8074 333.4223 0042907  51.8708 308.6370 14.99463386657280
Delfi-N3xt
1 39428U 13066N   26011.71738432  .00010041  00000-0  92673-3 0  9993
2 39428  97.8348 292.4526 0078985   8.0893 352.1579 14.92450522651268
GOMX-1
1 39430U 13066Q   26012.28757721  .00002061  00000-0  31912-3 0  9993
2 39430  97.6587 222.5057 0129062 217.6874 141.5239 14.68784989647029
LO-74
1 39440U 13066AA  26012.31844960  .00003933  00000-0  37818-3 0  9990
2 39440  97.8735 320.9647 0059068 182.3362 177.7590 14.92294569653736
AO-73
1 39444U 13066AE  26011.88123463  .00009705  00000-0  64769-3 0  9991
2 39444  97.8097 340.5487 0039209  18.1858 342.0760 15.06612345656104
DTUSAT-2
1 40030U 14033W   26011.91314150  .00009908  00000-0  57491-3 0  9997
2 40030  98.0783   0.0956 0009845  54.7787 305.4362 15.12334262629041
EO-80
1 40032U 14033Y   26012.18647628  .00009913  00000-0  57357-3 0  9995
2 40032  98.0662 359.7365 0007708   1.4635 358.6615 15.12452634629061
LILACSAT-2
1 40908U 15049K   26012.23683287  .00017864  00000-0  36944-3 0  9995
2 40908  97.4891  43.5748 0009641  97.3169 262.9176 15.45816976571612
Horyu-4
1 41340U 16012D   26011.58408646  .00055002  00000-0  81329-3 0  9991
2 41340  30.9929 104.5772 0005482 164.4059 195.6760 15.53994986546198
Lapan A3
1 41603U 16040E   26012.26908727  .00004073  00000-0  13472-3 0  9991
2 41603  97.1443  13.7223 0009564 204.9026 155.1756 15.31845684530934
CAS-2T
1 41847U 16066G   26012.17695929  .00001486  00000-0  21960-3 0  9992
2 41847  98.3995  89.6195 0342476 242.6439 113.9513 14.44230128482278
TechnoSat
1 42829U 17042E   26012.27548855  .00004219  00000-0  31120-3 0  9990
2 42829  97.4042 176.1750 0017341 266.8430  93.0812 15.03687830463260
AO-91
1 43017U 17073E   26012.14400475  .00009696  00000-0  44862-3 0  9996
2 43017  97.4930 242.6602 0159948 145.6086 215.5623 15.09583730441821
S-Net D
1 43186U 18014G   26012.27717281  .00006457  00000-0  35106-3 0  9992
2 43186  97.5483 278.1284 0007977 186.6028 173.5100 15.14798502435149
S-Net B
1 43187U 18014H   26012.28572854  .00006395  00000-0  34794-3 0  9992
2 43187  97.5485 278.1183 0008767 182.7942 177.3242 15.14772392435148
S-Net A
1 43188U 18014J   26012.27675314  .00006480  00000-0  35222-3 0  9999
2 43188  97.5496 278.2906 0008688 183.3032 176.8144 15.14805241435149
S-Net C
1 43189U 18014K   26012.28880410  .00006341  00000-0  34499-3 0  9997
2 43189  97.5512 278.3531 0010240 177.4472 182.6814 15.14766164433690
Ten-Koh
1 43677U 18084G   26012.29130388  .00002376  00000-0  18608-3 0  9997
2 43677  98.0748 198.1557 0007165 284.9949  75.0481 15.02036457392759
PO-101
1 43678U 18084H   26012.28035269  .00001592  00000-0  13446-3 0  9993
2 43678  98.1100 201.9885 0006742 317.3843  42.6855 14.99653369392841
QO-100
1 43700U 18090A   26012.23963126  .00000161  00000-0  00000-0 0  9993
2 43700   0.0191  44.5368 0001666 302.2106 237.0261  1.00272203 26118
MinXSS-2
1 43758U 18099A   26012.19037913  .00028590  00000-0  80419-3 0  9997
2 43758  97.4751  84.9995 0010032 106.3895 253.8452 15.36404097390093
AO-95
1 43770U 18099N   26012.09566975  .00013569  00000-0  58312-3 0  9992
2 43770  97.4635  73.1628 0009604 169.2703 190.8740 15.22746745389430
SNUSat 2
1 43782U 18099AA  26012.10131772  .00010747  00000-0  51652-3 0  9995
2 43782  97.4314  67.9934 0012192 118.6156 241.6307 15.18931710389318
SnugLite
1 43784U 18099AC  26012.14061694  .00013289  00000-0  56499-3 0  9994
2 43784  97.4129  68.1913 0004399 110.4193 249.7517 15.23148269389536
ITASat 1
1 43786U 18099AE  26012.11963877  .00008169  00000-0  42013-3 0  9995
2 43786  97.4285  66.8012 0013408 170.2856 189.8639 15.16627409389233
EAGLET 1
1 43790U 18099AJ  26012.09569032  .00005814  00000-0  34679-3 0  9995
2 43790  97.4480  65.8519 0011894 158.5243 201.6488 15.11468903388749
ESEO
1 43792U 18099AL  26012.09544127  .00001601  00000-0  12103-3 0  9993
2 43792  97.4207  56.0386 0013437 138.5012 221.7237 15.03639802388349
JO-97
1 43803U 18099AX  26012.14820507  .00017885  00000-0  65590-3 0  9990
2 43803  97.4382  74.8819 0007593 102.1643 258.0447 15.28009672389753
Suomi 100
1 43804U 18099AY  26012.12649408  .00014419  00000-0  59244-3 0  9997
2 43804  97.4437  73.3604 0012101 108.9623 251.2926 15.24226557389615
ISAT
1 43879U 18111D   26012.27946442  .00042416  00000-0  90978-3 0  9995
2 43879  97.5910 298.2620 0008210 126.6729 233.5274 15.44578884386958
UWE-4
1 43880U 18111E   26012.26724548  .00024781  00000-0  70298-3 0  9995
2 43880  97.5859 294.6782 0010332 150.0076 210.1761 15.36167078386766
Sparrow
1 43881U 18111F   26012.28045458  .00049096  00000-0  96158-3 0  9993
2 43881  97.6095 302.2135 0005444 146.2636 213.8961 15.47228209387089
Prox-1
1 44339U 19036A   26012.26874628  .00013353  00000-0  14548-2 0  9995
2 44339  23.9961  72.4230 0006992  41.8763 318.2270 14.86148457350210
Taurus 1
1 44530U 19059C   26012.34535142  .00006521  00000-0  11015-2 0  9992
2 44530  98.6238 167.9012 0008801  81.1021 279.1179 14.69746462335736
TO-108
1 44881U 19093C   26012.33547854  .00000558  00000-0  69569-4 0  9994
2 44881  97.7715  88.2785 0012398 237.0029 122.9996 14.86185677328269
FloripaSat 1
1 44885U 19093G   26012.29901909  .00008277  00000-0  63936-3 0  9995
2 44885  97.7979 105.6400 0010281 223.6597 136.3815 15.01755138329233
RS-44
1 44909U 19096E   26012.27043324  .00000006  00000-0 -25981-4 0  9993
2 44909  82.5202  83.3222 0218171 148.7257 212.7039 12.79746603282406
SALSAT
1 46495U 20068K   26012.20724789  .00008832  00000-0  33618-3 0  9999
2 46495  97.8808   6.1402 0011943 122.9923 237.2465 15.26941415291536
CSS (TIANHE-1)
1 48274U 21035A   26012.12737156  .00021726  00000-0  25939-3 0  9998
2 48274  41.4654 192.0458 0011500 268.5283  91.4238 15.60438906268770
CUTE
1 49263U 21088D   26009.68576342  .00056058  00000-0  66997-3 0  9995
2 49263  97.4315  98.8209 0004978 160.4704 199.6745 15.60828750237657
TeikyoSat 4
1 49396U 21102B   26012.11085378  .00002941  00000-0  19051-3 0  9996
2 49396  97.3871  47.5667 0013713 108.2274 252.0449 15.08808569229180
Z-Sat
1 49399U 21102E   26012.32551573  .00004426  00000-0  22776-3 0  9995
2 49399  97.3553  52.3493 0018740  72.5413 287.7867 15.16779039229800
KOSEN 1
1 49402U 21102H   26012.10546952  .00008970  00000-0  36964-3 0  9993
2 49402  97.3435  57.3678 0015635  43.9136 316.3341 15.24202246230222
HO-113
1 50466U 21131B   26012.26868211  .00000623  00000-0  20700-3 0  9997
2 50466  98.5020 105.5343 0003875 191.7910 168.3188 14.41162644212653
SNUGLITE 2
1 52899U 22065F   26012.28721687  .00001225  00000-0  24307-3 0  9999
2 52899  98.1946 157.6538 0008099 146.8547 213.3164 14.63942381188185
